Regional Weather Roundup
Issued by NWS

Home | Current Version | Previous Version | Graphics & Text | Print | Product List | Glossary On
Versions: 1 2 3 4 5 6 7 8 9 10 11 12 13 14 15 16 17 18 19 20 21 22 23 24 25 26 27 28 29 30 31 32 33 34 35 36 37 38 39 40 41 42 43 44 45 46 47 48 49 50
000
ASUS43 KOAX 061410
RWRNE

WEATHER ROUNDUP FOR NEBRASKA
NATIONAL WEATHER SERVICE OMAHA NE
800 AM CST TUE DEC 06 2016

NOTES: SATELLITE DATA IS BEING USED TO AUGMENT CLOUD COVER ABOVE
       12000 FEET.
       "FAIR" INDICATES FEW OR NO CLOUDS BELOW 12,000 FEET WITH NO
       SIGNIFICANT WEATHER AND/OR OBSTRUCTIONS TO VISIBILITY.

  * THESE STATIONS DO NOT REPORT WEATHER SUCH AS RAIN...SNOW OR FOG.

NEZ001>004-019>022-054>056-061500-
NEBRASKA PANHANDLE

CITY           SKY/WX    TMP DP  RH WIND       PRES   REMARKS
SCOTTSBLUFF    CLEAR      2  -4  76 N8        29.98S WCI -12
ALLIANCE       CLEAR      2  -3  80 MISG      29.96R
CHADRON        CLEAR     10   2  69 SW13      30.01R WCI  -5
KIMBALL        CLEAR     10   1  69 W12       29.94R WCI  -5
SIDNEY         CLEAR      3  -3  76 W9        29.96S WCI -12
$$

NEZ057>060-069>072-079>082-061500-
SOUTHWEST NEBRASKA

CITY           SKY/WX    TMP DP  RH WIND       PRES   REMARKS
NORTH PLATTE   CLEAR     12   6  77 W8        30.01R WCI   0
IMPERIAL       CLEAR      8   2  76 SW6       30.02R WCI  -2
LEXINGTON      CLEAR     14   9  81 W5        30.04S WCI   6
MCCOOK         CLEAR     16   7  67 W12       30.06R WCI   3
OGALLALA       CLEAR      8   3  82 W10       30.02S WCI  -7
$$

NEZ005>010-023>029-035>040-094-061500-
NORTH CENTRAL NEBRASKA

CITY           SKY/WX    TMP DP  RH WIND       PRES   REMARKS
VALENTINE      CLEAR     10   3  73 W12       29.97R WCI  -5
AINSWORTH      CLEAR     13   8  79 W12       29.96S WCI  -1
BROKEN BOW     CLEAR     15   8  73 W8        29.98S WCI   4
O`NEILL        CLEAR     18   6  58 NW16G29   29.95R WCI   4
ORD            CLEAR     16   9  74 W8        29.99R WCI   5
THEDFORD       CLEAR     15   9  75 W9        29.97S WCI   3
$$

NEZ041-046>049-061>064-073>077-083>087-061500-
SOUTH CENTRAL NEBRASKA

CITY           SKY/WX    TMP DP  RH WIND       PRES   REMARKS
GRAND ISLAND   CLEAR     17  13  84 W9        30.02R WCI   6
AURORA         CLEAR     20  11  69 NW9       30.02R WCI   9
HASTINGS       CLEAR     19  13  77 W12       30.04R WCI   7
HEBRON         CLEAR     21  15  75 W3        30.03S
HOLDREGE       CLEAR     18   9  68 W7        30.04R WCI   9
KEARNEY *      CLEAR     18   9  68 W10       30.03R WCI   6
YORK           CLEAR     23  12  63 NW18G24   30.01S WCI   9
$$

NEZ011>018-030>034-042>045-061500-
NORTHEAST NEBRASKA

CITY           SKY/WX    TMP DP  RH WIND       PRES   REMARKS
NORFOLK        CLEAR     19   8  62 W16       29.96R WCI   4
ALBION         CLEAR     20   6  55 NW12G18   29.99R WCI   8
BLAIR          CLEAR     21  13  71 W9        29.97S WCI  11
FREMONT        CLEAR     20  14  75 W13       30.00R WCI   8
TEKAMAH        CLEAR     20  12  71 W9        29.99S WCI   9
WAYNE          CLEAR     19  10  70 W12G18    29.95S WCI   6
$$

NEZ050>053-065>068-078-088>093-061500-
SOUTHEAST NEBRASKA

CITY           SKY/WX    TMP DP  RH WIND       PRES   REMARKS
LINCOLN        CLEAR     24  11  57 NW13      30.03R WCI  12
OMAHA EPPLEY   CLEAR     22  12  65 NW7       30.01R WCI  13
BEATRICE       PTCLDY    21  14  75 NW5       30.03R WCI  14
FALLS CITY     PTCLDY    27  18  69 NW17      30.01R WCI  14
NEBRASKA CITY  CLEAR     24  11  59 NW14      30.01R WCI  12
PLATTSMOUTH    CLEAR     23  11  59 NW10      30.00R WCI  12
$$

NEZ044-045-051>053-067-061500-
OMAHA AREA

CITY           SKY/WX    TMP DP  RH WIND       PRES   REMARKS
OMAHA EPPLEY   CLEAR     22  12  65 NW7       30.01R WCI  13
BLAIR          CLEAR     21  13  71 W9        29.97S WCI  11
FREMONT        CLEAR     20  14  75 W13       30.00R WCI   8
MILLARD        CLEAR     23  12  62 NW10      30.01R WCI  13
OFFUTT AFB     CLEAR     22  13  68 NW13      30.00R WCI  10
PLATTSMOUTH    CLEAR     23  11  59 NW10      30.00R WCI  12
WAHOO          FAIR      22  13  68 NW10      30.00S WCI  11
$$




USA.gov is the U.S. government's official web portal to all federal, state and local government web resources and services.